Simultaneous Nadir Overpasses (SNOs) Predictions

Prediction of SNOs between GOES-16 and LANDSAT-8 Satellite Orbit:

Table of predicted SNOs for the next 14.0 days since TLE Epoch: 10/2/2021
Index Date Time (GOES-16) GOES-16 Lat,Lon LANDSAT-8 Lat,Lon Distance(km) Time Diff (sec)
1 10/03/2021 15:15:36 0.10, -75.21 0.15, -75.37 19.23 80
2 10/05/2021 15:00:46 0.10, -75.22 -0.52, -72.43 317.78 80
3 10/06/2021 03:24:50 -0.10, -75.20 -0.61, -77.61 274.41 80
4 10/08/2021 03:09:59 -0.11, -75.21 0.00, -74.66 63.09 80
5 10/10/2021 02:57:48 -0.11, -75.23 0.62, -71.70 400.79 80
6 10/10/2021 15:21:01 0.11, -75.25 0.46, -76.86 182.87 37
7 10/12/2021 15:06:53 0.12, -75.27 -0.16, -73.90 155.16 80
8 10/13/2021 03:30:57 -0.13, -75.25 -0.96, -79.09 436.65 80
9 10/14/2021 14:54:42 0.13, -75.29 -0.78, -70.94 493.78 80
10 10/15/2021 03:18:46 -0.13, -75.28 -0.33, -76.13 97.85 80
